Date String (YYYY-MM-DD hh:mm:ss) UTC,Instrument flags,absolute air pressure of the measurement (hPa),sample flow rate (lpm),inlet stack bypass flow (lpm),air temperature of the measurement (°C),ambient temperature measured by the external sensor (°C),aerosol sample conditioner tube jacket temperature (°C),OPC LED temperature (°C),internal box temperature (°C),relative humidity of the measurement (%),span deviation,mass concentration of particles derived from Lorenz-Mie calculation of OPC scattering (μg/m³),mass concentration of particles derived from Lorenz-Mie calculation of OPC scattering (μg/m³),mass concentration of particles derived from Lorenz-Mie calculation of OPC scattering (μg/m³)
DateTimeUTC,F1_M11,P_M11,Q1_M11,Q2_M11,T1_M11,T2_M11,T3_M11,T4_M11,T5_M11,U1_M11,ZSPAN_M11,X0_M11,X2_M11,X1_M11
2023-07-27 07:00:00,SystemResetWarning,0834.5,5.01,000.00,029.6,028.3,000.0,037.9,031.2,32.1,0000.0,0008.32,0003.73,0003.05
2023-07-27 07:01:00,SystemResetWarning,0835.0,4.99,000.00,029.5,027.1,000.0,037.8,031.0,32.1,0000.0,0008.26,0003.71,0003.02
2023-07-27 07:02:00,SystemResetWarning,0834.9,5.00,000.00,029.5,025.7,000.0,037.7,030.7,31.9,0000.0,0008.16,0003.69,0003.02
2023-07-27 07:03:00,SystemResetWarning,0835.0,5.02,000.00,029.4,025.4,000.0,037.7,030.5,32.0,0000.0,0008.14,0003.67,0003.02
2023-07-27 07:04:00,SystemResetWarning,0834.7,5.00,000.00,029.3,025.6,000.0,037.7,030.4,32.3,0000.0,0007.96,0003.61,0003.00
2023-07-27 07:05:00,SystemResetWarning,0834.7,4.99,000.00,029.2,026.0,000.0,037.7,030.5,32.1,0000.0,0008.90,0003.64,0002.99
2023-07-27 07:06:00,SystemResetWarning,0835.0,4.99,000.00,029.2,026.4,000.0,037.7,030.6,31.9,0000.0,0008.46,0003.71,0003.00
2023-07-27 07:07:00,SystemResetWarning,0835.1,5.00,000.00,029.2,026.7,000.0,037.7,030.6,31.8,0000.0,0008.66,0003.74,0003.02
2023-07-27 07:08:00,SystemResetWarning,0834.9,5.01,000.00,029.2,027.0,000.0,037.7,030.7,32.0,0000.0,0008.72,0003.75,0003.03
2023-07-27 07:09:00,SystemResetWarning,0834.8,5.00,000.00,029.2,027.3,000.0,037.7,030.7,32.5,0000.0,0008.68,0003.75,0003.04
2023-07-27 07:10:00,SystemResetWarning,0834.6,5.00,000.00,029.3,027.5,000.0,037.7,030.8,33.7,0000.0,0008.64,0003.73,0003.05
2023-07-27 07:11:00,SystemResetWarning,0834.8,5.00,000.00,029.3,027.7,000.0,037.7,030.9,33.5,0000.0,0008.68,0003.72,0003.08
2023-07-27 07:12:00,SystemResetWarning,0835.0,5.00,000.00,029.3,027.8,000.0,037.8,030.9,32.2,0000.0,0008.75,0003.75,0003.11
2023-07-27 07:13:00,SystemResetWarning,0834.5,5.00,000.00,029.3,027.9,000.0,037.8,031.0,31.3,0000.0,0008.82,0003.78,0003.13
2023-07-27 07:14:00,SystemResetWarning,0834.5,5.00,000.00,029.4,028.1,000.0,037.8,031.0,30.6,0000.0,0008.71,0003.77,0003.14
2023-07-27 07:15:00,SystemResetWarning,0834.4,5.00,000.00,029.4,028.1,000.0,037.8,031.0,30.8,0000.0,0008.83,0003.81,0003.16
2023-07-27 07:16:00,SystemResetWarning,0834.4,5.00,000.00,029.4,028.2,000.0,037.8,031.1,30.5,0000.0,0008.09,0003.80,0003.16
2023-07-27 07:17:00,SystemResetWarning,0834.3,5.00,000.00,029.5,028.3,000.0,037.8,031.1,30.4,0000.0,0007.39,0003.75,0003.16
2023-07-27 07:18:00,SystemResetWarning,0834.4,4.99,000.00,029.5,028.0,000.0,037.8,031.1,30.4,0000.0,0006.57,0003.73,0003.16
2023-07-27 07:19:00,SystemResetWarning,0834.4,4.98,000.00,029.5,026.3,000.0,037.7,030.9,30.6,0000.0,0007.69,0003.74,0003.17
2023-07-27 07:20:00,SystemResetWarning,0834.5,5.02,000.00,029.4,025.4,000.0,037.6,030.7,30.7,0000.0,0007.74,0003.74,0003.18
2023-07-27 07:21:00,SystemResetWarning,0834.4,5.00,000.00,029.3,025.3,000.0,037.6,030.4,30.9,0000.0,0007.79,0003.78,0003.20
2023-07-27 07:22:00,SystemResetWarning,0834.2,5.00,000.00,029.2,025.6,000.0,037.7,030.4,31.0,0000.0,0007.84,0003.82,0003.22
2023-07-27 07:23:00,SystemResetWarning,0834.2,5.00,000.00,029.2,026.0,000.0,037.7,030.5,31.4,0000.0,0007.95,0003.86,0003.24
2023-07-27 07:24:00,SystemResetWarning,0834.2,4.99,000.00,029.1,026.4,000.0,037.7,030.5,31.4,0000.0,0007.96,0003.87,0003.25
2023-07-27 07:25:00,SystemResetWarning,0834.3,5.00,000.00,029.2,026.8,000.0,037.7,030.6,31.5,0000.0,0007.98,0003.88,0003.26
2023-07-27 07:26:00,SystemResetWarning,0834.2,5.00,000.00,029.2,027.1,000.0,037.7,030.7,31.6,0000.0,0007.94,0003.87,0003.26
2023-07-27 07:27:00,SystemResetWarning,0834.2,4.99,000.00,029.2,027.3,000.0,037.7,030.7,31.7,0000.0,0007.90,0003.85,0003.26
2023-07-27 07:28:00,SystemResetWarning,0834.1,4.99,000.00,029.2,027.5,000.0,037.7,030.8,31.5,0000.0,0007.85,0003.83,0003.25
2023-07-27 07:29:00,SystemResetWarning,0834.1,5.00,000.00,029.2,027.7,000.0,037.7,030.8,31.1,0000.0,0007.75,0003.80,0003.25
2023-07-27 07:30:00,SystemResetWarning,0834.1,5.00,000.00,029.3,027.8,000.0,037.7,030.9,30.7,0000.0,0006.66,0003.79,0003.26
2023-07-27 07:31:00,SystemResetWarning,0834.0,5.00,000.00,029.3,027.9,000.0,037.7,030.9,30.6,0000.0,0006.65,0003.78,0003.25
2023-07-27 07:32:00,SystemResetWarning,0834.0,5.01,000.00,029.3,028.0,000.0,037.7,030.9,30.7,0000.0,0006.69,0003.77,0003.24
2023-07-27 07:33:00,SystemResetWarning,0833.9,5.00,000.00,029.3,028.1,000.0,037.7,031.0,30.4,0000.0,0006.52,0003.73,0003.22
2023-07-27 07:34:00,SystemResetWarning,0833.9,4.99,000.00,029.4,028.2,000.0,037.8,031.0,30.0,0000.0,0006.05,0003.63,0003.19
2023-07-27 07:35:00,SystemResetWarning,0833.9,5.00,000.00,029.4,028.2,000.0,037.8,031.1,29.6,0000.0,0005.85,0003.58,0003.17
2023-07-27 07:36:00,SystemResetWarning,0833.9,5.00,000.00,029.4,028.3,000.0,037.8,031.1,29.5,0000.0,0006.00,0003.59,0003.15
2023-07-27 07:37:00,SystemResetWarning,0833.9,5.00,000.00,029.5,028.3,000.0,037.8,031.1,29.5,0000.0,0005.98,0003.59,0003.15
2023-07-27 07:38:00,SystemResetWarning,0833.9,5.00,000.00,029.5,028.4,000.0,037.9,031.1,29.3,0000.0,0006.12,0003.61,0003.16
2023-07-27 07:39:00,SystemResetWarning,0833.9,5.00,000.00,029.5,028.4,000.0,037.9,031.2,28.9,0000.0,0006.45,0003.64,0003.16
2023-07-27 07:40:00,SystemResetWarning,0833.8,5.00,000.00,029.6,027.9,000.0,037.9,031.1,28.6,0000.0,0006.72,0003.67,0003.15
2023-07-27 07:41:00,SystemResetWarning,0833.8,5.00,000.00,029.5,026.1,000.0,037.8,030.9,28.7,0000.0,0006.64,0003.64,0003.13
2023-07-27 07:42:00,SystemResetWarning,0833.8,5.01,000.00,029.4,025.3,000.0,037.7,030.7,28.9,0000.0,0006.46,0003.62,0003.11
2023-07-27 07:43:00,SystemResetWarning,0833.8,5.01,000.00,029.3,025.4,000.0,037.7,030.5,29.2,0000.0,0006.33,0003.60,0003.10
2023-07-27 07:44:00,SystemResetWarning,0833.8,4.99,000.00,029.2,025.7,000.0,037.7,030.5,29.4,0000.0,0006.34,0003.60,0003.08
2023-07-27 07:45:00,SystemResetWarning,0833.8,5.00,000.00,029.2,026.1,000.0,037.7,030.5,29.8,0000.0,0006.40,0003.61,0003.07
2023-07-27 07:46:00,SystemResetWarning,0833.8,5.00,000.00,029.2,026.5,000.0,037.7,030.6,29.6,0000.0,0006.32,0003.59,0003.05
2023-07-27 07:47:00,SystemResetWarning,0833.8,5.00,000.00,029.2,026.8,000.0,037.7,030.7,29.6,0000.0,0006.08,0003.55,0003.02
2023-07-27 07:48:00,SystemResetWarning,0833.8,4.99,000.00,029.2,027.1,000.0,037.7,030.7,29.7,0000.0,0006.07,0003.51,0002.98
2023-07-27 07:49:00,SystemResetWarning,0833.8,5.00,000.00,029.2,027.3,000.0,037.7,030.8,29.4,0000.0,0006.00,0003.49,0002.95
2023-07-27 07:50:00,SystemResetWarning,0833.8,5.00,000.00,029.2,027.5,000.0,037.7,030.8,29.3,0000.0,0005.69,0003.45,0002.89
2023-07-27 07:51:00,SystemResetWarning,0833.8,5.00,000.00,029.3,027.7,000.0,037.7,030.9,29.3,0000.0,0005.59,0003.41,0002.83
2023-07-27 07:52:00,SystemResetWarning,0833.8,5.00,000.00,029.3,027.8,000.0,037.7,030.9,29.0,0000.0,0005.38,0003.35,0002.77
2023-07-27 07:53:00,SystemResetWarning,0833.8,5.01,000.00,029.3,027.9,000.0,037.7,030.9,29.0,0000.0,0005.37,0003.33,0002.73
2023-07-27 07:54:00,SystemResetWarning,0833.8,5.01,000.00,029.3,028.0,000.0,037.8,030.9,29.0,0000.0,0005.63,0003.31,0002.69
2023-07-27 07:55:00,SystemResetWarning,0833.8,5.01,000.00,029.4,028.1,000.0,037.8,031.0,29.0,0000.0,0005.64,0003.27,0002.66
2023-07-27 07:56:00,SystemResetWarning,0833.9,5.00,000.00,029.4,028.2,000.0,037.8,031.0,28.8,0000.0,0005.84,0003.25,0002.63
2023-07-27 07:57:00,SystemResetWarning,0833.9,5.00,000.00,029.4,028.2,000.0,037.8,031.1,28.6,0000.0,0006.04,0003.26,0002.61
2023-07-27 07:58:00,SystemResetWarning,0833.9,4.99,000.00,029.5,028.3,000.0,037.8,031.1,28.7,0000.0,0006.17,0003.27,0002.60
2023-07-27 07:59:00,SystemResetWarning,0833.8,4.99,000.00,029.5,028.3,000.0,037.9,031.1,28.5,0000.0,0006.16,0003.27,0002.59
